GW6215 Weather Reports


Display with metric or nautical units.
time (UTC)temp
F
wind
direction
speed
MPH
gust
MPH
rain 1hr
in
rain 24hr
in
rain mn
in
humidity
%
barometer
mb
20260906171028 98 165 0.0 7.0 0.00 0.00 0.00 48 1015.6
20260906170525 97 0 2.0 7.0 0.00 0.00 0.00 47 1015.6
20260906170043 97 0 0.0 5.0 0.00 0.00 0.00 48 1015.7
20260906165526 96 0 1.0 5.0 0.00 0.00 0.00 47 1015.7
20260906165029 97 44 0.0 4.0 0.00 0.00 0.00 47 1015.7
20260906164550 96 97 1.0 6.0 0.00 0.00 0.00 47 1015.9
20260906164029 96 21 2.0 6.0 0.00 0.00 0.00 49 1016.0
20260906163528 95 355 2.0 6.0 0.00 0.00 0.00 50 1015.9
20260906163046 95 309 1.0 6.0 0.00 0.00 0.00 49 1015.9
20260906162528 95 46 2.0 6.0 0.00 0.00 0.00 49 1015.9
20260906162028 95 51 1.0 3.0 0.00 0.00 0.00 49 1016.0
20260906161542 95 0 0.0 4.0 0.00 0.00 0.00 49 1016.0
20260906161032 95 68 0.0 4.0 0.00 0.00 0.00 51 1016.0
20260906160528 95 104 1.0 4.0 0.00 0.00 0.00 50 1016.0
20260906160047 94 146 0.0 3.0 0.00 0.00 0.00 52 1016.0
20260906155527 94 122 0.0 5.0 0.00 0.00 0.00 52 1016.1
20260906155030 94 35 1.0 5.0 0.00 0.00 0.00 52 1016.0
20260906154545 94 108 1.0 3.0 0.00 0.00 0.00 52 1016.0
20260906154028 94 92 0.0 2.0 0.00 0.00 0.00 52 1015.9
20260906153529 93 154 0.0 1.0 0.00 0.00 0.00 54 1015.9
20260906153108 93 0 0.0 2.0 0.00 0.00 0.00 55 1015.9
20260906152530 92 84 0.0 2.0 0.00 0.00 0.00 54 1015.9
20260906152028 92 250 0.0 2.0 0.00 0.00 0.00 56 1015.9
20260906151558 92 33 0.0 2.0 0.00 0.00 0.00 57 1016.0
20260906151028 92 112 0.0 1.0 0.00 0.00 0.00 57 1015.9
20260906150528 90 0 0.0 1.0 0.00 0.00 0.00 59 1015.9
20260906150047 89 0 0.0 2.0 0.00 0.00 0.00 59 1015.9
20260906145529 89 0 0.0 2.0 0.00 0.00 0.00 60 1015.9
20260906145029 89 23 0.0 1.0 0.00 0.00 0.00 61 1015.9
20260906144550 89 350 0.0 1.0 0.00 0.00 0.00 61 1015.9
20260906144027 89 39 0.0 1.0 0.00 0.00 0.00 62 1015.9
20260906143528 88 13 0.0 1.0 0.00 0.00 0.00 64 1015.8
20260906143053 88 0 0.0 1.0 0.00 0.00 0.00 64 1015.9
20260906142528 87 49 0.0 1.0 0.00 0.00 0.00 65 1015.9
20260906142033 87 0 0.0 1.0 0.00 0.00 0.00 65 1016.0
20260906141545 86 0 0.0 1.0 0.00 0.00 0.00 68 1016.0
20260906141028 84 0 0.0 1.0 0.00 0.00 0.00 70 1016.0
20260906140528 84 0 0.0 1.0 0.00 0.00 0.00 72 1015.9
20260906140048 83 0 0.0 1.0 0.00 0.00 0.00 73 1016.0
20260906135526 82 0 0.0 1.0 0.00 0.00 0.00 74 1015.9
20260906135028 82 0 0.0 1.0 0.00 0.00 0.00 74 1015.9
20260906134605 81 0 0.0 1.0 0.00 0.00 0.00 76 1015.8
20260906134028 80 99 0.0 1.0 0.00 0.00 0.00 78 1015.8
20260906133533 80 0 0.0 1.0 0.00 0.00 0.00 79 1015.8
20260906133051 79 0 0.0 1.0 0.00 0.00 0.00 80 1015.9
20260906132529 78 0 0.0 0.0 0.00 0.00 0.00 82 1015.8
20260906132029 77 0 0.0 0.0 0.00 0.00 0.00 82 1015.8
20260906131552 77 0 0.0 0.0 0.00 0.00 0.00 83 1015.8
20260906131028 77 0 0.0 0.0 0.00 0.00 0.00 85 1015.7
20260906130529 76 0 0.0 0.0 0.00 0.00 0.00 86 1015.7
20260906130042 75 0 0.0 0.0 0.00 0.00 0.00 87 1015.7
20260906125529 74 0 0.0 1.0 0.00 0.00 0.00 89 1015.5
20260906125031 73 0 0.0 1.0 0.00 0.00 0.00 90 1015.5
20260906124550 72 0 0.0 0.0 0.00 0.00 0.00 91 1015.5
20260906124029 72 0 0.0 0.0 0.00 0.00 0.00 92 1015.4
20260906123527 71 0 0.0 0.0 0.00 0.00 0.00 93 1015.2
20260906123054 70 0 0.0 0.0 0.00 0.00 0.00 94 1015.2
20260906122529 70 105 0.0 0.0 0.00 0.00 0.00 94 1015.0
20260906122029 69 0 0.0 0.0 0.00 0.00 0.00 94 1015.1
20260906121544 69 0 0.0 0.0 0.00 0.00 0.00 94 1015.0
20260906121028 69 0 0.0 0.0 0.00 0.00 0.00 94 1015.0
20260906120529 69 0 0.0 0.0 0.00 0.00 0.00 94 1015.0
20260906120051 69 0 0.0 0.0 0.00 0.00 0.00 94 1015.1
20260906115529 69 0 0.0 0.0 0.00 0.00 0.00 94 1015.0
20260906115032 69 0 0.0 0.0 0.00 0.00 0.00 94 1014.7
20260906114543 69 0 0.0 0.0 0.00 0.00 0.00 94 1014.7
20260906114030 69 0 0.0 0.0 0.00 0.00 0.00 93 1014.7
20260906113528 69 0 0.0 0.0 0.00 0.00 0.00 93 1014.6
20260906113103 69 0 0.0 0.0 0.00 0.00 0.00 93 1014.6
20260906112531 69 0 0.0 0.0 0.00 0.00 0.00 94 1014.6
20260906112028 69 0 0.0 0.0 0.00 0.00 0.00 93 1014.6
20260906111541 69 0 0.0 0.0 0.00 0.00 0.00 93 1014.6
20260906111028 69 0 0.0 0.0 0.00 0.00 0.00 93 1014.6
20260906110528 69 0 0.0 0.0 0.00 0.00 0.00 93 1014.6
20260906110052 69 0 0.0 0.0 0.00 0.00 0.00 93 1014.6
20260906105528 69 0 0.0 0.0 0.00 0.00 0.00 93 1014.5
20260906105028 69 0 0.0 0.0 0.00 0.00 0.00 93 1014.6
20260906104544 69 0 0.0 0.0 0.00 0.00 0.00 92 1014.6
20260906104028 70 0 0.0 1.0 0.00 0.00 0.00 92 1014.6
20260906103529 70 0 0.0 1.0 0.00 0.00 0.00 92 1014.4
20260906103059 70 0 0.0 1.0 0.00 0.00 0.00 93 1014.5
20260906102532 70 0 0.0 0.0 0.00 0.00 0.00 92 1014.4
20260906102028 70 0 0.0 0.0 0.00 0.00 0.00 92 1014.4
20260906101542 70 0 0.0 0.0 0.00 0.00 0.00 92 1014.4
20260906101028 70 0 0.0 0.0 0.00 0.00 0.00 92 1014.4
20260906100532 70 0 0.0 0.0 0.00 0.00 0.00 92 1014.4
20260906100047 70 0 0.0 0.0 0.00 0.00 0.00 91 1014.4
20260906095528 70 0 0.0 0.0 0.00 0.00 0.00 92 1014.4
20260906095029 70 0 0.0 0.0 0.00 0.00 0.00 92 1014.4
20260906094544 70 0 0.0 0.0 0.00 0.00 0.00 92 1014.3
20260906094028 70 0 0.0 0.0 0.00 0.00 0.00 91 1014.4
20260906093529 70 0 0.0 0.0 0.00 0.00 0.00 91 1014.4
20260906093041 70 0 0.0 0.0 0.00 0.00 0.00 91 1014.3
20260906092528 70 0 0.0 0.0 0.00 0.00 0.00 91 1014.4
20260906092033 71 0 0.0 0.0 0.00 0.00 0.00 91 1014.4
20260906091547 71 0 0.0 0.0 0.00 0.00 0.00 90 1014.4
20260906091028 71 0 0.0 0.0 0.00 0.00 0.00 90 1014.3
20260906090529 71 0 0.0 0.0 0.00 0.00 0.00 90 1014.3
20260906090058 71 0 0.0 0.0 0.00 0.00 0.00 90 1014.2
20260906085529 71 0 0.0 0.0 0.00 0.00 0.00 90 1014.1
20260906085029 71 0 0.0 0.0 0.00 0.00 0.00 90 1014.0
20260906084543 71 0 0.0 0.0 0.00 0.00 0.00 90 1014.1
20260906084028 71 0 0.0 1.0 0.00 0.00 0.00 90 1014.0
20260906083528 71 0 0.0 1.0 0.00 0.00 0.00 90 1014.0
20260906083049 71 0 0.0 1.0 0.00 0.00 0.00 90 1014.1
20260906082528 71 0 0.0 0.0 0.00 0.00 0.00 90 1014.0
20260906082031 71 0 0.0 0.0 0.00 0.00 0.00 90 1014.0
20260906081547 71 0 0.0 0.0 0.00 0.00 0.00 90 1014.0
20260906081029 72 0 0.0 0.0 0.00 0.00 0.00 89 1014.2
20260906080530 72 0 0.0 0.0 0.00 0.00 0.00 89 1014.1
20260906080044 72 0 0.0 0.0 0.00 0.00 0.00 89 1014.1
20260906075529 72 0 0.0 0.0 0.00 0.00 0.00 89 1014.1
20260906075028 72 0 0.0 0.0 0.00 0.00 0.00 89 1014.0
20260906074543 72 0 0.0 0.0 0.00 0.00 0.00 88 1014.0
20260906074028 72 0 0.0 0.0 0.00 0.00 0.00 88 1014.0
20260906073529 72 0 0.0 0.0 0.00 0.00 0.00 88 1014.0
20260906073104 72 0 0.0 0.0 0.00 0.00 0.00 88 1013.9
20260906072528 72 0 0.0 0.0 0.00 0.00 0.00 88 1014.0
20260906072030 72 0 0.0 0.0 0.00 0.00 0.00 88 1014.1
20260906071543 72 0 0.0 1.0 0.00 0.00 0.00 88 1014.1
20260906071029 72 0 0.0 1.0 0.00 0.00 0.00 88 1014.1
20260906070530 72 0 0.0 0.0 0.00 0.00 0.00 88 1014.2
20260906070044 72 0 0.0 0.0 0.00 0.00 0.00 88 1014.1
20260906065532 72 0 0.0 0.0 0.00 0.00 0.00 88 1014.1
20260906065029 72 0 0.0 0.0 0.00 0.00 0.00 87 1014.2
20260906064546 72 0 0.0 0.0 0.00 0.00 0.00 87 1014.2
20260906064030 72 0 0.0 0.0 0.00 0.00 0.00 86 1014.3
20260906063526 73 0 0.0 0.0 0.00 0.00 0.00 86 1014.3
20260906063049 73 0 0.0 0.0 0.00 0.00 0.00 87 1014.3
20260906062528 73 0 0.0 0.0 0.00 0.00 0.00 86 1014.4
20260906062029 73 0 0.0 0.0 0.00 0.00 0.00 86 1014.4
20260906061543 73 0 0.0 0.0 0.00 0.00 0.00 86 1014.4
20260906061029 73 0 0.0 0.0 0.00 0.00 0.00 86 1014.3
20260906060530 73 0 0.0 0.0 0.00 0.00 0.00 86 1014.2
20260906060042 73 0 0.0 0.0 0.00 0.00 0.00 86 1014.3
20260906055529 73 0 0.0 0.0 0.00 0.00 0.00 86 1014.3
20260906055029 73 0 0.0 0.0 0.00 0.00 0.00 85 1014.2
20260906054546 73 0 0.0 0.0 0.00 0.00 0.00 85 1014.2
20260906054029 73 0 0.0 0.0 0.00 0.00 0.00 85 1014.2
20260906053530 74 0 0.0 0.0 0.00 0.00 0.00 85 1014.2
20260906053042 74 0 0.0 0.0 0.00 0.00 0.00 85 1014.2
20260906052533 74 0 0.0 0.0 0.00 0.00 0.00 84 1014.2
20260906052028 74 0 0.0 0.0 0.00 0.00 0.00 84 1014.1
20260906051556 74 0 0.0 0.0 0.00 0.00 0.00 83 1014.1
20260906051031 75 0 0.0 0.0 0.00 0.00 0.00 82 1014.1
20260906050528 75 0 0.0 0.0 0.00 0.00 0.00 82 1014.1
20260906050104 75 0 0.0 0.0 0.00 0.00 0.00 83 1014.1
20260906045529 75 0 0.0 0.0 0.00 0.00 0.00 83 1014.2
20260906045029 75 0 0.0 0.0 0.00 0.00 0.00 83 1014.1
20260906044550 75 0 0.0 0.0 0.00 0.00 0.00 82 1014.0
20260906044030 75 0 0.0 0.0 0.00 0.00 0.00 82 1014.0
20260906043531 75 0 0.0 0.0 0.00 0.00 0.00 81 1014.1
20260906043051 76 0 0.0 0.0 0.00 0.00 0.00 81 1014.3
20260906042529 76 0 0.0 0.0 0.00 0.00 0.00 80 1014.3
20260906042029 76 0 0.0 0.0 0.00 0.00 0.00 80 1014.3
20260906041550 76 0 0.0 0.0 0.00 0.00 0.00 80 1014.2
20260906041028 76 0 0.0 0.0 0.00 0.00 0.00 80 1014.1
20260906040529 77 0 0.0 0.0 0.00 0.00 0.00 79 1014.0
20260906040046 77 0 0.0 0.0 0.00 0.00 0.00 79 1014.1
20260906035531 77 0 0.0 0.0 0.00 0.00 0.00 78 1014.1
20260906035029 77 0 0.0 0.0 0.00 0.00 0.00 78 1014.1
20260906034605 77 0 0.0 0.0 0.00 0.00 0.00 78 1014.1
20260906034030 77 0 0.0 0.0 0.00 0.00 0.00 78 1014.1
20260906033528 77 0 0.0 0.0 0.00 0.00 0.00 78 1014.1
20260906033044 77 0 0.0 0.0 0.00 0.00 0.00 77 1014.1
20260906032528 78 0 0.0 0.0 0.00 0.00 0.00 76 1013.9
20260906032029 78 0 0.0 0.0 0.00 0.00 0.00 75 1014.0
20260906031552 79 0 0.0 0.0 0.00 0.00 0.00 75 1014.0
20260906031029 79 0 0.0 0.0 0.00 0.00 0.00 75 1013.9
20260906030528 79 0 0.0 0.0 0.00 0.00 0.00 74 1013.9
20260906030045 79 0 0.0 0.0 0.00 0.00 0.00 74 1013.9
20260906025529 80 0 0.0 0.0 0.00 0.00 0.00 73 1013.9
20260906025030 80 0 0.0 1.0 0.00 0.00 0.00 73 1013.9
20260906024551 80 0 0.0 1.0 0.00 0.00 0.00 72 1013.9
20260906024029 81 0 0.0 1.0 0.00 0.00 0.00 71 1013.8
20260906023529 81 0 0.0 0.0 0.00 0.00 0.00 69 1013.8
20260906023056 82 0 0.0 0.0 0.00 0.00 0.00 69 1013.8
20260906022532 82 0 0.0 1.0 0.00 0.00 0.00 67 1013.7
20260906022029 83 0 0.0 1.0 0.00 0.00 0.00 67 1013.7
20260906021552 84 0 0.0 1.0 0.00 0.00 0.00 66 1013.7
20260906021028 84 0 0.0 1.0 0.00 0.00 0.00 64 1013.5
20260906020529 85 0 0.0 1.0 0.00 0.00 0.00 64 1013.5
20260906020055 85 0 0.0 1.0 0.00 0.00 0.00 63 1013.4
20260906015530 85 0 0.0 1.0 0.00 0.00 0.00 62 1013.4
20260906015029 85 35 0.0 4.0 0.00 0.00 0.00 63 1013.2
20260906014542 84 0 0.0 4.0 0.00 0.00 0.00 63 1013.2
20260906014028 84 0 0.0 4.0 0.00 0.00 0.00 64 1013.1
20260906013528 83 0 0.0 1.0 0.00 0.00 0.00 66 1013.1
20260906013101 84 0 0.0 0.0 0.00 0.00 0.00 65 1013.0
20260906012529 84 0 0.0 2.0 0.00 0.00 0.00 64 1013.0
20260906012029 84 0 0.0 2.0 0.00 0.00 0.00 64 1012.9
20260906011548 85 41 0.0 1.0 0.00 0.00 0.00 63 1012.9
20260906011030 85 0 0.0 1.0 0.00 0.00 0.00 62 1012.8
20260906010528 86 0 0.0 0.0 0.00 0.00 0.00 61 1012.7
20260906010043 87 0 0.0 0.0 0.00 0.00 0.00 59 1012.6
20260906005529 87 0 0.0 0.0 0.00 0.00 0.00 58 1012.6
20260906005030 88 0 0.0 0.0 0.00 0.00 0.00 56 1012.5
20260906004549 89 0 0.0 5.0 0.00 0.00 0.00 55 1012.6
20260906004032 89 0 0.0 5.0 0.00 0.00 0.00 54 1012.7
20260906003527 89 20 0.0 5.0 0.00 0.00 0.00 56 1012.7
20260906003046 89 0 0.0 3.0 0.00 0.00 0.00 57 1012.7
20260906002527 90 37 1.0 3.0 0.00 0.00 0.00 57 1012.6
20260906002029 92 0 0.0 0.0 0.00 0.00 0.00 54 1012.6
20260906001544 93 0 0.0 0.0 0.00 0.00 0.00 52 1012.6
20260906001028 94 0 0.0 0.0 0.00 0.00 0.00 50 1012.6
20260906000529 95 0 0.0 0.0 0.00 0.00 0.00 48 1012.6
20260906000047 97 0 0.0 0.0 0.00 0.00 0.00 46 1012.6
20260905235529 98 0 0.0 0.0 0.00 0.00 0.00 44 1012.6
20260905235028 100 0 0.0 0.0 0.00 0.00 0.00 40 1012.6
20260905234558 102 0 0.0 0.0 0.00 0.00 0.00 38 1012.6
20260905234030 102 0 0.0 0.0 0.00 0.00 0.00 35 1012.6
20260905233528 102 0 0.0 1.0 0.00 0.00 0.00 36 1012.5
20260905233044 102 0 0.0 2.0 0.00 0.00 0.00 35 1012.5
20260905232528 101 130 0.0 2.0 0.00 0.00 0.00 35 1012.5
20260905232029 101 106 0.0 1.0 0.00 0.00 0.00 34 1012.5
20260905231542 101 0 0.0 3.0 0.00 0.00 0.00 36 1012.6
20260905231025 101 101 0.0 3.0 0.00 0.00 0.00 34 1012.5
20260905230525 100 0 0.0 3.0 0.00 0.00 0.00 35 1012.6
20260905230051 100 0 0.0 4.0 0.00 0.00 0.00 37 1012.6
20260905225526 100 0 2.0 4.0 0.00 0.00 0.00 35 1012.5
20260905225027 100 55 1.0 5.0 0.00 0.00 0.00 36 1012.5
20260905224541 100 35 1.0 5.0 0.00 0.00 0.00 36 1012.4
20260905224024 101 35 0.0 3.0 0.00 0.00 0.00 35 1012.4
20260905223528 101 0 0.0 3.0 0.00 0.00 0.00 35 1012.3
20260905223052 101 330 1.0 3.0 0.00 0.00 0.00 34 1012.3
20260905222528 101 30 0.0 3.0 0.00 0.00 0.00 36 1012.4
20260905222027 100 46 0.0 4.0 0.00 0.00 0.00 35 1012.4
20260905221543 100 3 2.0 6.0 0.00 0.00 0.00 34 1012.4
20260905221027 101 46 2.0 6.0 0.00 0.00 0.00 35 1012.4
20260905220524 102 34 1.0 5.0 0.00 0.00 0.00 35 1012.5
20260905215526 101 41 1.0 5.0 0.00 0.00 0.00 35 1012.5
20260905215024 102 76 1.0 5.0 0.00 0.00 0.00 35 1012.7
20260905214545 101 155 0.0 5.0 0.00 0.00 0.00 36 1012.8
20260905214029 101 120 2.0 4.0 0.00 0.00 0.00 37 1012.7
20260905213526 100 165 0.0 3.0 0.00 0.00 0.00 37 1012.8
20260905213042 100 296 1.0 5.0 0.00 0.00 0.00 37 1012.9
20260905212526 99 0 1.0 5.0 0.00 0.00 0.00 37 1012.9
20260905212025 99 250 2.0 8.0 0.00 0.00 0.00 37 1013.0
20260905211544 98 0 3.0 8.0 0.00 0.00 0.00 39 1013.0
20260905211025 98 295 3.0 8.0 0.00 0.00 0.00 39 1013.2
20260905210525 99 314 2.0 6.0 0.00 0.00 0.00 38 1013.2
20260905210058 100 349 2.0 5.0 0.00 0.00 0.00 39 1013.3
20260905205524 100 293 0.0 5.0 0.00 0.00 0.00 38 1013.4
20260905205028 100 0 2.0 5.0 0.00 0.00 0.00 40 1013.4
20260905204550 100 29 2.0 5.0 0.00 0.00 0.00 37 1013.5
20260905204025 101 75 2.0 4.0 0.00 0.00 0.00 37 1013.6
20260905203530 100 0 0.0 4.0 0.00 0.00 0.00 40 1013.6
20260905203058 99 200 0.0 6.0 0.00 0.00 0.00 40 1013.7
20260905202524 99 49 2.0 6.0 0.00 0.00 0.00 41 1013.7
20260905202024 99 106 2.0 6.0 0.00 0.00 0.00 42 1013.8
20260905201542 100 44 2.0 9.0 0.00 0.00 0.00 41 1013.9
20260905201028 100 101 3.0 9.0 0.00 0.00 0.00 41 1014.0
20260905200527 101 69 1.0 8.0 0.00 0.00 0.00 40 1014.0
20260905200042 100 0 0.0 10.0 0.00 0.00 0.00 40 1014.1
20260905195528 100 213 5.0 10.0 0.00 0.00 0.00 39 1014.0
20260905195032 100 181 3.0 10.0 0.00 0.00 0.00 39 1014.1
20260905194548 100 0 0.0 3.0 0.00 0.00 0.00 42 1014.2
20260905194028 100 0 0.0 3.0 0.00 0.00 0.00 41 1014.3
20260905193529 100 0 0.0 3.0 0.00 0.00 0.00 42 1014.4
20260905193044 99 0 0.0 3.0 0.00 0.00 0.00 43 1014.4
20260905192525 98 103 0.0 5.0 0.00 0.00 0.00 45 1014.5
20260905192026 98 44 1.0 5.0 0.00 0.00 0.00 44 1014.5
20260905191543 99 79 2.0 6.0 0.00 0.00 0.00 45 1014.4
20260905191025 98 39 0.0 10.0 0.00 0.00 0.00 45 1014.5
20260905190529 98 26 3.0 10.0 0.00 0.00 0.00 45 1014.6
20260905190046 98 70 2.0 6.0 0.00 0.00 0.00 46 1014.7
20260905185524 97 327 0.0 5.0 0.00 0.00 0.00 44 1014.8
20260905185031 97 307 2.0 5.0 0.00 0.00 0.00 46 1015.0
20260905184550 96 326 1.0 27.0 0.00 0.00 0.00 45 1015.0
20260905184028 96 50 0.0 27.0 0.00 0.00 0.00 47 1015.1
20260905183528 95 30 5.0 18.0 0.00 0.00 0.00 48 1015.0
20260905183045 95 250 0.0 4.0 0.00 0.00 0.00 49 1015.1
20260905182526 95 322 1.0 3.0 0.00 0.00 0.00 46 1015.2
20260905182026 96 55 1.0 8.0 0.00 0.00 0.00 46 1015.3
20260905181549 96 0 2.0 8.0 0.00 0.00 0.00 46 1015.3
20260905181025 96 330 3.0 10.0 0.00 0.00 0.00 46 1015.4
20260905180527 96 351 5.0 10.0 0.00 0.00 0.00 47 1015.4
20260905180046 97 43 3.0 9.0 0.00 0.00 0.00 47 1015.5
20260905175527 96 155 0.0 7.0 0.00 0.00 0.00 48 1015.6
20260905175025 96 0 1.0 7.0 0.00 0.00 0.00 47 1015.7
20260905174545 95 0 2.0 8.0 0.00 0.00 0.00 48 1015.7
20260905174025 95 43 4.0 10.0 0.00 0.00 0.00 48 1015.9
20260905173525 95 116 4.0 10.0 0.00 0.00 0.00 47 1016.0
20260905173048 95 25 5.0 10.0 0.00 0.00 0.00 48 1015.9
20260905172528 95 256 1.0 9.0 0.00 0.00 0.00 50 1015.9
20260905172027 95 314 3.0 9.0 0.00 0.00 0.00 49 1016.1
20260905171557 95 42 5.0 9.0 0.00 0.00 0.00 52 1016.2